Time,TemperatureF,DewpointF,PressureIn,WindDirection,WindDirectionDegrees,WindSpeedMPH,WindSpeedGustMPH,Humidity,HourlyPrecipIn,Conditions,Clouds,dailyrainin,SolarRadiationWatts/m^2,SoftwareType,DateUTC
2013-01-15 00:22:00,3.0,-5.0,-100.00,North,-999,-999.0,14.0,70,0.00,,,-99.99,0.000000,,2013-01-15 07:22:00,
2013-01-15 00:33:00,2.0,-6.0,-100.00,North,-999,-999.0,16.0,70,0.00,,,-99.99,0.000000,,2013-01-15 07:33:00,
2013-01-15 00:42:00,1.0,-6.0,-100.00,North,-999,-999.0,18.0,70,0.00,,,-99.99,0.000000,,2013-01-15 07:42:00,
2013-01-15 00:52:00,2.0,-5.0,-100.00,North,-999,-999.0,18.0,73,0.00,,,-99.99,0.000000,,2013-01-15 07:52:00,
2013-01-15 01:01:00,2.0,-5.0,-100.00,North,-999,-999.0,19.0,71,0.00,,,-99.99,0.000000,,2013-01-15 08:01:00,
2013-01-15 01:12:00,1.0,-6.0,-100.00,North,-999,-999.0,21.0,71,0.00,,,-99.99,0.000000,,2013-01-15 08:12:00,
2013-01-15 01:22:00,2.0,-4.0,-100.00,North,-999,-999.0,16.0,75,0.00,,,-99.99,0.000000,,2013-01-15 08:22:00,
2013-01-15 01:32:00,1.0,-4.0,-100.00,North,-999,-999.0,7.0,77,0.00,,,-99.99,0.000000,,2013-01-15 08:32:00,
2013-01-15 01:42:00,2.0,-4.0,-100.00,North,-999,-999.0,5.0,78,0.00,,,-99.99,0.000000,,2013-01-15 08:42:00,
2013-01-15 01:52:00,2.0,-3.0,-100.00,North,-999,-999.0,5.0,78,0.00,,,-99.99,0.000000,,2013-01-15 08:52:00,
2013-01-15 02:02:00,4.0,-3.0,-100.00,North,-999,-999.0,10.0,73,0.00,,,-99.99,0.000000,,2013-01-15 09:02:00,
2013-01-15 02:11:00,4.0,-4.0,-100.00,North,-999,-999.0,13.0,69,0.00,,,-99.99,0.000000,,2013-01-15 09:11:00,
2013-01-15 02:22:00,4.0,-4.0,-100.00,North,-999,-999.0,16.0,69,0.00,,,-99.99,0.000000,,2013-01-15 09:22:00,
2013-01-15 02:33:00,4.0,-3.0,-100.00,North,-999,-999.0,11.0,72,0.00,,,-99.99,0.000000,,2013-01-15 09:33:00,
2013-01-15 02:42:00,4.0,-3.0,-100.00,North,-999,-999.0,8.0,72,0.00,,,-99.99,0.000000,,2013-01-15 09:42:00,
2013-01-15 02:52:00,4.0,-3.0,-100.00,North,-999,-999.0,8.0,72,0.00,,,-99.99,0.000000,,2013-01-15 09:52:00,
2013-01-15 03:02:00,5.0,-3.0,-100.00,North,-999,-999.0,10.0,70,0.00,,,-99.99,0.000000,,2013-01-15 10:02:00,
2013-01-15 03:11:00,3.0,-4.0,-100.00,North,-999,-999.0,8.0,72,0.00,,,-99.99,0.000000,,2013-01-15 10:11:00,
2013-01-15 03:22:00,4.0,-4.0,-100.00,North,-999,-999.0,7.0,71,0.00,,,-99.99,0.000000,,2013-01-15 10:22:00,
2013-01-15 03:32:00,3.0,-3.0,-100.00,North,-999,-999.0,6.0,73,0.00,,,-99.99,0.000000,,2013-01-15 10:32:00,
2013-01-15 03:42:00,4.0,-3.0,-100.00,North,-999,-999.0,4.0,74,0.00,,,-99.99,0.000000,,2013-01-15 10:42:00,
2013-01-15 03:50:00,3.0,-3.0,-100.00,North,-999,-999.0,12.0,73,0.00,,,-99.99,0.000000,,2013-01-15 10:50:00,
2013-01-15 03:52:00,4.0,-2.0,-100.00,North,-999,-999.0,4.0,74,0.00,,,-99.99,0.000000,,2013-01-15 10:52:00,
2013-01-15 04:02:00,4.0,-3.0,-100.00,North,-999,-999.0,5.0,74,0.00,,,-99.99,0.000000,,2013-01-15 11:02:00,
2013-01-15 04:12:00,3.0,-3.0,-100.00,North,-999,-999.0,12.0,73,0.00,,,-99.99,0.000000,,2013-01-15 11:12:00,
2013-01-15 04:22:00,3.0,-3.0,-100.00,North,-999,-999.0,12.0,73,0.00,,,-99.99,0.000000,,2013-01-15 11:22:00,
2013-01-15 04:32:00,3.0,-3.0,-100.00,North,-999,-999.0,12.0,73,0.00,,,-99.99,0.000000,,2013-01-15 11:32:00,
2013-01-15 04:42:00,3.0,-3.0,-100.00,North,-999,-999.0,12.0,73,0.00,,,-99.99,0.000000,,2013-01-15 11:42:00,
2013-01-15 05:23:00,4.0,-2.0,-100.00,North,-999,-999.0,5.0,77,0.00,,,-99.99,0.000000,,2013-01-15 12:23:00,
2013-01-15 05:33:00,4.0,-2.0,-100.00,North,-999,-999.0,7.0,75,0.00,,,-99.99,0.000000,,2013-01-15 12:33:00,
2013-01-15 05:43:00,4.0,-2.0,-100.00,North,-999,-999.0,13.0,73,0.00,,,-99.99,0.000000,,2013-01-15 12:43:00,
2013-01-15 05:53:00,4.0,-2.0,-100.00,North,-999,-999.0,7.0,76,0.00,,,-99.99,0.000000,,2013-01-15 12:53:00,
2013-01-15 06:02:00,4.0,-2.0,-100.00,North,-999,-999.0,6.0,77,0.00,,,-99.99,0.000000,,2013-01-15 13:02:00,
2013-01-15 06:12:00,4.0,-1.0,-100.00,North,-999,-999.0,5.0,77,0.00,,,-99.99,0.000000,,2013-01-15 13:12:00,
2013-01-15 06:22:00,4.0,-1.0,-100.00,North,-999,-999.0,4.0,78,0.00,,,-99.99,0.000000,,2013-01-15 13:22:00,
2013-01-15 06:32:00,4.0,-1.0,-100.00,North,-999,-999.0,4.0,77,0.00,,,-99.99,0.000000,,2013-01-15 13:32:00,
2013-01-15 06:42:00,5.0,-1.0,-100.00,North,-999,-999.0,5.0,77,0.00,,,-99.99,0.000000,,2013-01-15 13:42:00,
2013-01-15 06:52:00,5.0,-1.0,-100.00,North,-999,-999.0,3.0,77,0.00,,,-99.99,0.000000,,2013-01-15 13:52:00,
2013-01-15 07:02:00,4.0,-2.0,-100.00,North,-999,-999.0,5.0,74,0.00,,,-99.99,0.000000,,2013-01-15 14:02:00,
2013-01-15 07:12:00,4.0,-2.0,-100.00,North,-999,-999.0,4.0,75,0.00,,,-99.99,0.000000,,2013-01-15 14:12:00,
2013-01-15 07:22:00,4.0,-2.0,-100.00,North,-999,-999.0,4.0,75,0.00,,,-99.99,0.000000,,2013-01-15 14:22:00,
2013-01-15 07:32:00,5.0,-2.0,-100.00,North,-999,-999.0,8.0,72,0.00,,,-99.99,0.000000,,2013-01-15 14:32:00,
2013-01-15 07:42:00,4.0,-3.0,-100.00,North,-999,-999.0,9.0,72,0.00,,,-99.99,0.000000,,2013-01-15 14:42:00,
2013-01-15 07:53:00,4.0,-3.0,-100.00,North,-999,-999.0,9.0,72,0.00,,,-99.99,0.000000,,2013-01-15 14:53:00,
2013-01-15 08:03:00,4.0,-1.0,-100.00,North,-999,-999.0,6.0,77,0.00,,,-99.99,4.000000,,2013-01-15 15:03:00,
2013-01-15 08:12:00,4.0,-2.0,-100.00,North,-999,-999.0,7.0,74,0.00,,,-99.99,11.000000,,2013-01-15 15:12:00,
2013-01-15 08:22:00,4.0,-4.0,-100.00,North,-999,-999.0,13.0,71,0.00,,,-99.99,16.000000,,2013-01-15 15:22:00,
2013-01-15 08:33:00,4.0,-2.0,-100.00,North,-999,-999.0,11.0,73,0.00,,,-99.99,22.000000,,2013-01-15 15:33:00,
2013-01-15 08:43:00,4.0,-3.0,-100.00,North,-999,-999.0,3.0,74,0.00,,,-99.99,28.000000,,2013-01-15 15:43:00,
2013-01-15 08:50:00,5.0,-1.0,-100.00,North,-999,-999.0,4.0,78,0.00,,,-99.99,56.000000,,2013-01-15 15:50:00,
2013-01-15 08:52:00,4.0,-2.0,-100.00,North,-999,-999.0,4.0,75,0.00,,,-99.99,39.000000,,2013-01-15 15:52:00,
2013-01-15 09:02:00,4.0,-1.0,-100.00,North,-999,-999.0,4.0,78,0.00,,,-99.99,45.000000,,2013-01-15 16:02:00,
2013-01-15 09:11:00,5.0,-1.0,-100.00,North,-999,-999.0,4.0,78,0.00,,,-99.99,56.000000,,2013-01-15 16:11:00,
2013-01-15 09:22:00,5.0,-1.0,-100.00,North,-999,-999.0,4.0,78,0.00,,,-99.99,56.000000,,2013-01-15 16:22:00,
2013-01-15 09:32:00,5.0,-1.0,-100.00,North,-999,-999.0,4.0,78,0.00,,,-99.99,56.000000,,2013-01-15 16:32:00,
2013-01-15 09:42:00,5.0,-1.0,-100.00,North,-999,-999.0,4.0,78,0.00,,,-99.99,56.000000,,2013-01-15 16:42:00,
2013-01-15 10:23:00,8.0,-3.0,-100.00,North,-999,-999.0,12.0,60,0.00,,,-99.99,466.000000,,2013-01-15 17:23:00,
2013-01-15 10:33:00,8.0,-2.0,-100.00,North,-999,-999.0,13.0,63,0.00,,,-99.99,283.000000,,2013-01-15 17:33:00,
2013-01-15 10:43:00,8.0,-2.0,-100.00,North,-999,-999.0,10.0,62,0.00,,,-99.99,231.000000,,2013-01-15 17:43:00,
2013-01-15 10:53:00,11.0,0.0,-100.00,North,-999,-999.0,7.0,61,0.00,,,-99.99,588.000000,,2013-01-15 17:53:00,
2013-01-15 11:02:00,13.0,0.0,-100.00,North,-999,-999.0,5.0,56,0.00,,,-99.99,391.000000,,2013-01-15 18:02:00,
2013-01-15 11:12:00,13.0,0.0,-100.00,North,-999,-999.0,3.0,55,0.00,,,-99.99,330.000000,,2013-01-15 18:12:00,
2013-01-15 11:22:00,10.0,-2.0,-100.00,North,-999,-999.0,8.0,58,0.00,,,-99.99,217.000000,,2013-01-15 18:22:00,
2013-01-15 11:33:00,9.0,-2.0,-100.00,North,-999,-999.0,11.0,59,0.00,,,-99.99,416.000000,,2013-01-15 18:33:00,
2013-01-15 11:42:00,11.0,-1.0,-100.00,North,-999,-999.0,8.0,58,0.00,,,-99.99,577.000000,,2013-01-15 18:42:00,
2013-01-15 11:52:00,13.0,0.0,-100.00,North,-999,-999.0,8.0,55,0.00,,,-99.99,557.000000,,2013-01-15 18:52:00,
2013-01-15 12:02:00,15.0,0.0,-100.00,North,-999,-999.0,4.0,51,0.00,,,-99.99,510.000000,,2013-01-15 19:02:00,
2013-01-15 12:12:00,16.0,-1.0,-100.00,North,-999,-999.0,3.0,46,0.00,,,-99.99,577.000000,,2013-01-15 19:12:00,
2013-01-15 12:22:00,14.0,0.0,-100.00,North,-999,-999.0,6.0,54,0.00,,,-99.99,694.000000,,2013-01-15 19:22:00,
2013-01-15 12:33:00,13.0,1.0,-100.00,North,-999,-999.0,7.0,56,0.00,,,-99.99,561.000000,,2013-01-15 19:33:00,
2013-01-15 12:42:00,14.0,1.0,-100.00,North,-999,-999.0,6.0,54,0.00,,,-99.99,852.000000,,2013-01-15 19:42:00,
2013-01-15 12:52:00,17.0,2.0,-100.00,North,-999,-999.0,5.0,50,0.00,,,-99.99,757.000000,,2013-01-15 19:52:00,
2013-01-15 13:02:00,14.0,2.0,-100.00,North,-999,-999.0,8.0,57,0.00,,,-99.99,714.000000,,2013-01-15 20:02:00,
2013-01-15 13:12:00,13.0,2.0,-100.00,North,-999,-999.0,7.0,60,0.00,,,-99.99,559.000000,,2013-01-15 20:12:00,
2013-01-15 13:22:00,15.0,2.0,-100.00,North,-999,-999.0,6.0,57,0.00,,,-99.99,464.000000,,2013-01-15 20:22:00,
2013-01-15 13:33:00,15.0,2.0,-100.00,North,-999,-999.0,6.0,56,0.00,,,-99.99,479.000000,,2013-01-15 20:33:00,
2013-01-15 13:43:00,15.0,2.0,-100.00,North,-999,-999.0,6.0,55,0.00,,,-99.99,616.000000,,2013-01-15 20:43:00,
2013-01-15 13:50:00,15.0,2.0,-100.00,North,-999,-999.0,6.0,55,0.00,,,-99.99,496.000000,,2013-01-15 20:50:00,
2013-01-15 13:52:00,15.0,3.0,-100.00,North,-999,-999.0,5.0,57,0.00,,,-99.99,571.000000,,2013-01-15 20:52:00,
2013-01-15 14:02:00,17.0,2.0,-100.00,North,-999,-999.0,5.0,52,0.00,,,-99.99,511.000000,,2013-01-15 21:02:00,
2013-01-15 14:12:00,15.0,2.0,-100.00,North,-999,-999.0,6.0,55,0.00,,,-99.99,496.000000,,2013-01-15 21:12:00,
2013-01-15 14:22:00,15.0,2.0,-100.00,North,-999,-999.0,6.0,55,0.00,,,-99.99,496.000000,,2013-01-15 21:22:00,
2013-01-15 14:33:00,15.0,2.0,-100.00,North,-999,-999.0,6.0,55,0.00,,,-99.99,496.000000,,2013-01-15 21:33:00,
2013-01-15 14:42:00,15.0,2.0,-100.00,North,-999,-999.0,6.0,55,0.00,,,-99.99,496.000000,,2013-01-15 21:42:00,
2013-01-15 15:23:00,18.0,1.0,-100.00,North,-999,-999.0,3.0,46,0.00,,,-99.99,391.000000,,2013-01-15 22:23:00,
2013-01-15 15:33:00,18.0,2.0,-100.00,North,-999,-999.0,3.0,47,0.00,,,-99.99,411.000000,,2013-01-15 22:33:00,
2013-01-15 15:43:00,21.0,2.0,-100.00,North,-999,-999.0,3.0,42,0.00,,,-99.99,411.000000,,2013-01-15 22:43:00,
2013-01-15 15:53:00,20.0,2.0,-100.00,North,-999,-999.0,4.0,44,0.00,,,-99.99,304.000000,,2013-01-15 22:53:00,
2013-01-15 16:02:00,18.0,2.0,-100.00,North,-999,-999.0,4.0,50,0.00,,,-99.99,281.000000,,2013-01-15 23:02:00,
2013-01-15 16:12:00,19.0,2.0,-100.00,North,-999,-999.0,2.0,46,0.00,,,-99.99,257.000000,,2013-01-15 23:12:00,
2013-01-15 16:22:00,20.0,2.0,-100.00,North,-999,-999.0,3.0,46,0.00,,,-99.99,221.000000,,2013-01-15 23:22:00,
2013-01-15 16:32:00,19.0,1.0,-100.00,North,-999,-999.0,2.0,44,0.00,,,-99.99,203.000000,,2013-01-15 23:32:00,
2013-01-15 16:42:00,17.0,2.0,-100.00,North,-999,-999.0,3.0,50,0.00,,,-99.99,206.000000,,2013-01-15 23:42:00,
2013-01-15 16:52:00,17.0,2.0,-100.00,North,-999,-999.0,2.0,51,0.00,,,-99.99,141.000000,,2013-01-15 23:52:00,
2013-01-15 17:02:00,16.0,2.0,-100.00,North,-999,-999.0,2.0,54,0.00,,,-99.99,114.000000,,2013-01-16 00:02:00,
2013-01-15 17:12:00,14.0,2.0,-100.00,North,-999,-999.0,7.0,56,0.00,,,-99.99,138.000000,,2013-01-16 00:12:00,
2013-01-15 17:22:00,13.0,2.0,-100.00,North,-999,-999.0,10.0,60,0.00,,,-99.99,70.000000,,2013-01-16 00:22:00,
2013-01-15 17:32:00,13.0,3.0,-100.00,North,-999,-999.0,8.0,62,0.00,,,-99.99,39.000000,,2013-01-16 00:32:00,
2013-01-15 17:42:00,13.0,3.0,-100.00,North,-999,-999.0,4.0,64,0.00,,,-99.99,20.000000,,2013-01-16 00:42:00,
2013-01-15 17:52:00,13.0,3.0,-100.00,North,-999,-999.0,5.0,64,0.00,,,-99.99,7.000000,,2013-01-16 00:52:00,
2013-01-15 18:02:00,12.0,2.0,-100.00,North,-999,-999.0,9.0,64,0.00,,,-99.99,1.000000,,2013-01-16 01:02:00,
2013-01-15 18:12:00,12.0,3.0,-100.00,North,-999,-999.0,13.0,67,0.00,,,-99.99,0.000000,,2013-01-16 01:12:00,
2013-01-15 18:22:00,12.0,2.0,-100.00,North,-999,-999.0,12.0,64,0.00,,,-99.99,0.000000,,2013-01-16 01:22:00,
2013-01-15 18:32:00,12.0,3.0,-100.00,North,-999,-999.0,10.0,65,0.00,,,-99.99,0.000000,,2013-01-16 01:32:00,
2013-01-15 18:42:00,12.0,3.0,-100.00,North,-999,-999.0,13.0,65,0.00,,,-99.99,0.000000,,2013-01-16 01:42:00,
2013-01-15 18:50:00,13.0,4.0,-100.00,North,-999,-999.0,3.0,69,0.00,,,-99.99,0.000000,,2013-01-16 01:50:00,
2013-01-15 18:52:00,12.0,3.0,-100.00,North,-999,-999.0,12.0,66,0.00,,,-99.99,0.000000,,2013-01-16 01:52:00,
2013-01-15 19:02:00,13.0,4.0,-100.00,North,-999,-999.0,3.0,68,0.00,,,-99.99,0.000000,,2013-01-16 02:02:00,
2013-01-15 19:12:00,13.0,4.0,-100.00,North,-999,-999.0,3.0,69,0.00,,,-99.99,0.000000,,2013-01-16 02:12:00,
2013-01-15 19:22:00,13.0,4.0,-100.00,North,-999,-999.0,3.0,69,0.00,,,-99.99,0.000000,,2013-01-16 02:22:00,
2013-01-15 19:32:00,13.0,4.0,-100.00,North,-999,-999.0,3.0,69,0.00,,,-99.99,0.000000,,2013-01-16 02:32:00,
2013-01-15 19:42:00,13.0,4.0,-100.00,North,-999,-999.0,3.0,69,0.00,,,-99.99,0.000000,,2013-01-16 02:42:00,
2013-01-15 20:22:00,12.0,4.0,-100.00,North,-999,-999.0,5.0,69,0.00,,,-99.99,0.000000,,2013-01-16 03:22:00,
2013-01-15 20:33:00,11.0,3.0,-100.00,North,-999,-999.0,4.0,70,0.00,,,-99.99,0.000000,,2013-01-16 03:33:00,
2013-01-15 20:43:00,11.0,3.0,-100.00,North,-999,-999.0,4.0,71,0.00,,,-99.99,0.000000,,2013-01-16 03:43:00,
2013-01-15 20:53:00,10.0,3.0,-100.00,North,-999,-999.0,4.0,72,0.00,,,-99.99,0.000000,,2013-01-16 03:53:00,
2013-01-15 21:02:00,11.0,4.0,-100.00,North,-999,-999.0,5.0,72,0.00,,,-99.99,0.000000,,2013-01-16 04:02:00,
2013-01-15 21:11:00,11.0,3.0,-100.00,North,-999,-999.0,5.0,71,0.00,,,-99.99,0.000000,,2013-01-16 04:11:00,
2013-01-15 21:22:00,11.0,3.0,-100.00,North,-999,-999.0,2.0,71,0.00,,,-99.99,0.000000,,2013-01-16 04:22:00,
2013-01-15 21:32:00,11.0,4.0,-100.00,North,-999,-999.0,3.0,72,0.00,,,-99.99,0.000000,,2013-01-16 04:32:00,
2013-01-15 21:42:00,11.0,4.0,-100.00,North,-999,-999.0,3.0,73,0.00,,,-99.99,0.000000,,2013-01-16 04:42:00,
2013-01-15 21:52:00,11.0,4.0,-100.00,North,-999,-999.0,3.0,72,0.00,,,-99.99,0.000000,,2013-01-16 04:52:00,
2013-01-15 22:03:00,11.0,4.0,-100.00,North,-999,-999.0,5.0,72,0.00,,,-99.99,0.000000,,2013-01-16 05:03:00,
2013-01-15 22:12:00,11.0,4.0,-100.00,North,-999,-999.0,5.0,73,0.00,,,-99.99,0.000000,,2013-01-16 05:12:00,
2013-01-15 22:22:00,11.0,4.0,-100.00,North,-999,-999.0,3.0,73,0.00,,,-99.99,0.000000,,2013-01-16 05:22:00,
2013-01-15 22:32:00,11.0,4.0,-100.00,North,-999,-999.0,4.0,75,0.00,,,-99.99,0.000000,,2013-01-16 05:32:00,
2013-01-15 22:42:00,10.0,4.0,-100.00,North,-999,-999.0,5.0,76,0.00,,,-99.99,0.000000,,2013-01-16 05:42:00,
2013-01-15 22:52:00,9.0,4.0,-100.00,North,-999,-999.0,4.0,77,0.00,,,-99.99,0.000000,,2013-01-16 05:52:00,
2013-01-15 23:02:00,9.0,4.0,-100.00,North,-999,-999.0,4.0,79,0.00,,,-99.99,0.000000,,2013-01-16 06:02:00,
2013-01-15 23:11:00,10.0,4.0,-100.00,North,-999,-999.0,4.0,78,0.00,,,-99.99,0.000000,,2013-01-16 06:11:00,
2013-01-15 23:22:00,10.0,5.0,-100.00,North,-999,-999.0,3.0,79,0.00,,,-99.99,0.000000,,2013-01-16 06:22:00,
2013-01-15 23:32:00,11.0,4.0,-100.00,North,-999,-999.0,3.0,74,0.00,,,-99.99,0.000000,,2013-01-16 06:32:00,
2013-01-15 23:42:00,11.0,4.0,-100.00,North,-999,-999.0,4.0,72,0.00,,,-99.99,0.000000,,2013-01-16 06:42:00,
2013-01-15 23:50:00,7.0,2.0,-100.00,North,-999,-999.0,5.0,79,0.00,,,-99.99,0.000000,,2013-01-16 06:50:00,
2013-01-15 23:52:00,9.0,3.0,-100.00,North,-999,-999.0,8.0,76,0.00,,,-99.99,0.000000,,2013-01-16 06:52:00,